CAPE
nan nan nan nan nan nan nan nan nan nan nan nan nan nan nan nan nan nan nan nan nan nan nan nan nan nan nan nan nan nan nan nan nan nan nan 0 0 0 0 0 0 1 1 2 2 2 2 3 3 4 6 8 14 14 22 29 29 34 42 46 46 48 51 49 49 45 38 35 31 31 26 22 17 17 14 14 16 16 19 19 19 19 19 24 24 32
nan nan nan nan nan nan nan nan nan nan nan nan nan nan nan nan nan nan nan nan nan nan nan nan nan nan nan nan nan nan nan nan nan nan nan 0 0 0 0 0 0 1 1 2 2 2 3 3 3 4 6 7 12 12 17 24 24 32 37 41 41 45 47 49 49 47 45 42 34 34 27 19 17 17 16 19 25 25 26 29 29 29 27 31 31 41
nan nan nan nan nan nan nan nan nan nan nan nan nan nan nan nan nan nan nan nan nan nan nan nan nan nan nan nan nan nan nan nan nan nan nan 0 0 0 0 0 0 1 1 2 2 2 3 4 4 5 7 8 10 10 14 23 23 28 31 33 33 34 36 38 38 40 41 39 35 35 27 23 19 19 24 30 32 32 33 35 35 34 35 41 41 51
nan nan nan nan nan nan nan nan nan nan nan nan nan nan nan nan nan nan nan nan nan nan nan nan nan nan nan nan nan nan nan nan nan nan nan nan 0 0 0 0 0 1 1 3 3 3 3 4 4 6 8 8 10 10 13 19 19 23 27 25 25 26 26 26 26 30 30 31 29 29 30 29 32 32 35 37 37 37 35 36 36 39 43 51 51 60
nan nan nan nan nan nan nan nan nan nan nan nan nan nan nan nan nan nan nan nan nan nan nan nan nan nan nan nan nan nan nan nan nan nan nan nan nan nan 0 0 0 1 2 3 3 4 5 6 6 7 8 9 11 11 13 16 16 20 21 23 23 21 21 20 20 24 25 30 36 36 39 45 45 45 45 43 45 45 45 44 44 44 49 57 57 71
nan nan nan nan nan nan nan nan nan nan nan nan nan nan nan nan nan nan nan nan nan nan nan nan nan nan nan nan nan nan nan nan nan nan nan nan nan nan 0 0 0 2 3 5 5 7 8 8 8 8 10 11 11 11 13 16 16 19 19 18 18 15 15 16 16 19 25 35 43 43 50 53 51 51 46 50 56 56 61 60 60 58 55 64 64 78
nan nan nan nan nan nan nan nan nan nan nan nan nan nan nan nan nan nan nan nan nan nan nan nan nan nan nan nan nan nan nan nan nan nan nan nan nan nan 0 1 1 2 3 5 5 7 9 10 10 12 11 12 12 12 13 14 14 17 16 13 13 11 10 14 14 20 31 43 50 50 58 60 57 57 56 56 66 66 74 79 79 82 74 71 71 85
nan nan nan nan nan nan nan nan nan nan nan nan nan nan nan nan nan nan nan nan nan nan nan nan nan nan nan nan nan nan nan nan nan nan nan nan nan nan 0 1 1 2 4 6 6 9 12 13 13 15 14 13 14 14 15 14 14 9 6 3 3 4 8 13 13 28 38 46 58 58 64 68 67 67 65 64 66 66 76 97 97 115 131 136 136 126
nan nan nan nan nan nan nan nan nan nan nan nan nan nan nan nan nan nan nan nan nan nan nan nan nan nan nan nan nan nan nan nan nan nan nan nan nan nan nan 1 1 2 5 7 7 10 13 13 13 13 13 13 14 14 14 11 11 5 3 2 2 3 8 17 17 35 44 52 58 58 68 70 75 75 75 75 73 73 73 86 86 116 143 163 163 162
nan nan nan nan nan nan nan nan nan nan nan nan nan nan nan nan nan nan nan nan nan nan nan nan nan nan nan nan nan nan nan nan 1 1 1 nan 1 1 0 0 0 0 5 9 9 11 12 13 13 12 11 13 13 13 13 7 7 4 2 1 1 4 9 23 23 37 46 55 63 63 70 78 84 84 89 83 79 79 76 84 84 105 129 158 158 178
nan nan nan nan nan nan nan nan nan nan nan nan nan nan nan nan nan nan nan nan nan nan nan nan nan nan nan nan nan nan nan nan nan nan nan nan 0 0 0 1 1 2 7 9 9 10 9 8 8 10 10 11 13 13 9 4 4 3 2 3 3 6 13 29 29 38 47 56 61 61 73 83 84 84 92 89 90 90 88 81 81 89 104 131 131 163
nan nan nan nan nan nan nan nan nan nan nan nan nan nan nan nan 0 0 nan nan nan nan nan nan nan nan nan nan nan nan nan nan nan nan nan nan nan nan nan nan nan 0 1 4 4 6 6 7 7 9 9 9 11 11 8 3 3 3 3 6 6 11 21 29 29 41 46 55 66 66 71 79 89 89 100 100 102 102 96 85 85 77 80 105 105 142
0 0 0 0 0 nan nan nan nan nan nan nan nan nan nan nan 1 1 2 0 0 1 0 0 0 nan nan nan nan nan nan nan nan nan nan nan nan nan nan nan nan nan nan nan nan nan 3 7 7 9 10 9 10 10 9 5 5 6 8 12 12 19 24 31 31 40 49 60 67 67 73 74 84 84 96 109 111 111 100 93 93 91 88 100 100 134
1 1 0 0 0 nan nan nan nan nan nan nan nan nan 0 1 2 2 3 2 2 3 3 0 0 nan nan nan nan nan nan nan nan nan nan nan nan nan nan nan nan nan nan nan nan nan 1 3 3 4 13 14 12 12 10 10 10 13 15 19 19 25 28 31 31 40 51 63 72 72 76 79 85 85 101 112 116 116 111 105 105 104 108 110 110 129
3 2 2 1 1 0 nan nan nan nan nan nan 0 0 2 2 3 3 4 5 5 4 3 0 0 nan nan nan nan nan nan nan nan nan nan nan nan nan 0 nan nan 0 nan nan nan nan 3 4 4 4 7 11 10 10 11 13 13 22 21 22 22 26 33 38 38 48 56 65 78 78 80 84 87 87 102 114 125 125 123 119 119 111 109 107 107 115
4 4 2 2 2 0 nan nan nan nan nan 0 1 1 1 2 5 5 11 10 10 6 3 0 0 nan nan nan nan nan nan nan nan nan nan nan nan nan 1 0 0 0 nan nan nan nan 1 4 4 6 8 13 15 15 15 19 19 25 24 24 24 29 34 40 40 47 54 70 77 77 82 84 91 91 102 110 116 116 113 106 106 110 107 99 99 104
7 6 6 3 3 1 0 0 0 0 0 1 2 2 2 6 10 10 15 13 13 7 3 0 0 nan nan nan nan nan nan nan nan nan nan nan nan nan 5 2 2 0 nan 0 0 1 3 5 5 5 7 15 19 19 19 22 22 23 24 26 26 33 39 42 42 52 58 67 77 77 78 86 88 88 98 103 97 97 91 87 87 87 89 88 88 98
9 8 8 4 4 2 1 1 1 1 3 2 4 4 7 12 15 15 13 11 11 6 4 1 1 nan nan nan nan nan nan 0 2 2 1 0 0 0 5 3 3 1 1 1 1 3 5 6 6 6 9 22 23 23 22 22 22 23 25 31 31 34 40 47 47 54 57 61 67 67 73 76 87 87 94 94 93 93 84 79 79 78 88 91 91 103
9 8 7 4 4 3 3 2 3 3 3 5 10 10 13 18 14 14 12 9 9 6 3 2 2 0 nan nan nan nan nan 3 4 4 3 1 nan nan 1 1 1 2 3 3 3 5 7 10 10 17 21 24 23 23 22 21 21 23 27 30 30 36 42 47 47 53 52 56 56 56 62 68 76 76 87 83 84 84 80 80 80 81 97 119 119 125
10 9 7 3 3 3 3 5 7 7 8 12 14 14 16 16 13 13 8 7 7 4 3 2 2 0 nan nan nan nan 0 5 4 4 3 1 nan nan nan 0 0 1 2 3 3 4 7 19 19 24 19 22 20 20 19 19 19 22 26 31 31 35 41 41 41 44 46 45 53 53 59 66 73 73 76 80 82 82 76 76 76 87 107 131 131 149
12 10 7 4 4 1 2 7 11 11 16 16 19 19 19 14 10 10 6 5 5 3 3 2 2 1 0 0 nan nan 3 6 5 5 3 1 nan nan nan 1 1 1 1 1 1 2 6 18 18 23 18 17 16 16 15 17 17 21 27 32 32 35 34 35 35 36 38 39 49 49 56 67 70 70 71 69 71 71 70 77 77 94 116 146 146 163
8 8 7 5 5 0 3 7 19 19 21 22 16 16 16 11 7 7 4 3 3 4 3 2 2 1 1 2 2 2 8 10 6 6 2 0 nan nan nan 0 0 nan nan nan nan 0 5 12 12 12 14 16 13 13 13 16 16 22 26 30 30 31 29 26 26 24 29 36 44 44 50 62 64 64 65 63 65 65 72 84 84 103 128 147 147 164
1 5 10 5 5 1 5 5 15 15 44 43 22 22 13 7 6 6 6 4 4 4 3 2 2 2 2 2 3 3 7 8 5 5 2 nan nan nan nan nan nan nan nan nan nan nan 1 1 1 2 7 15 12 12 13 16 16 22 26 26 26 25 24 21 21 20 26 29 37 37 47 50 58 58 61 66 67 67 70 92 92 113 130 157 157 164
2 3 6 9 9 13 18 22 27 27 30 23 15 15 12 5 6 6 5 3 3 6 5 3 3 3 2 3 2 2 2 3 4 4 1 nan nan nan nan nan nan nan nan nan nan nan 0 0 0 1 3 13 12 12 13 15 15 18 19 20 20 21 18 17 17 17 18 26 32 32 40 52 56 56 65 69 71 71 73 89 89 110 127 146 146 161
26 21 17 14 14 12 4 2 4 4 5 6 5 5 4 9 11 11 7 4 4 5 4 3 3 2 1 1 0 0 0 2 1 1 0 nan nan nan nan nan nan nan nan nan nan nan 1 1 1 2 3 7 10 10 8 10 10 11 13 15 15 16 15 12 12 10 12 20 29 29 42 51 59 59 73 73 82 82 81 94 94 106 122 120 120 143
12 2 nan 0 0 5 9 13 13 13 13 7 6 6 5 8 7 7 3 3 3 3 3 2 2 2 0 0 nan nan nan 1 0 0 nan nan nan nan nan nan nan nan nan nan nan 1 2 2 2 2 2 1 3 3 3 4 4 6 8 10 10 10 8 6 6 7 10 17 28 28 37 45 54 54 67 75 86 86 91 91 91 102 117 122 122 122
4 3 5 5 5 5 6 9 13 13 17 14 8 8 7 9 7 7 4 2 2 3 2 1 1 1 0 nan nan nan nan nan nan nan nan nan 0 0 nan 1 1 1 1 0 0 0 3 2 2 0 nan nan nan nan 1 2 2 4 6 6 6 4 3 3 3 6 10 16 19 19 29 38 50 50 66 75 88 88 95 104 104 116 112 106 106 111
nan nan nan nan nan 1 3 8 9 9 10 13 18 18 13 9 6 6 3 1 1 5 4 2 2 1 0 nan nan nan nan nan nan nan nan 1 1 1 0 1 1 3 2 1 1 1 4 1 1 nan nan nan nan nan 0 1 1 2 2 2 2 1 1 3 3 6 9 12 15 15 20 29 40 40 51 74 84 84 94 110 110 112 116 80 80 40
nan nan nan nan nan 0 3 4 4 4 6 10 16 16 13 6 4 4 3 5 5 8 5 3 3 1 0 nan nan nan nan nan nan nan 0 2 1 1 1 1 1 3 1 2 2 0 nan nan nan nan nan nan nan nan nan 0 0 0 0 0 0 0 0 2 2 4 8 10 13 13 16 23 31 31 47 68 86 86 96 114 114 117 89 61 61 39
nan nan nan nan nan nan 0 nan 0 0 3 8 12 12 9 4 4 4 5 13 13 7 3 2 2 2 1 0 nan nan nan nan nan nan 0 1 1 1 1 1 1 2 2 1 1 nan nan nan nan nan nan nan nan nan nan nan nan nan nan nan nan nan 0 1 1 4 7 9 11 11 14 18 22 22 35 60 80 80 98 118 118 96 56 45 45 47
nan nan nan nan nan nan nan nan nan nan 2 5 7 7 4 2 3 3 11 11 11 3 1 1 1 1 1 0 nan nan nan nan nan nan 0 2 1 1 2 2 2 4 3 2 2 0 nan nan nan nan nan nan nan nan nan nan nan nan nan nan nan nan nan 0 0 2 5 7 10 10 13 16 19 19 29 51 72 72 98 118 118 98 49 48 48 45
nan nan nan nan nan nan nan nan nan nan nan nan nan nan nan 0 0 0 0 nan nan 0 0 1 1 1 1 1 0 0 nan nan 0 0 4 4 6 6 5 3 3 6 3 7 7 3 nan 0 0 nan nan nan nan nan nan nan nan nan nan nan nan nan nan nan nan 0 1 4 8 8 11 13 18 18 23 33 57 57 92 112 112 108 65 50 50 62
nan nan nan nan nan nan nan nan nan nan nan nan nan nan nan nan nan nan 0 0 0 0 1 2 2 2 1 1 1 1 0 nan 1 1 9 5 4 4 3 2 2 2 3 4 4 4 2 1 1 0 0 nan nan nan nan nan nan nan nan nan nan nan nan nan nan nan 1 3 6 6 11 13 17 17 23 29 56 56 86 124 124 141 123 55 55 63
nan nan nan nan nan nan nan nan nan nan nan nan nan nan nan nan nan nan nan nan nan 0 1 1 1 2 1 1 0 0 0 nan 2 2 8 5 1 1 3 2 2 3 3 3 3 3 2 2 2 1 0 0 nan nan nan nan nan 0 0 0 0 nan nan nan nan 0 1 2 2 2 6 8 21 21 22 29 44 44 83 120 120 148 153 81 81 71
nan nan nan nan nan nan nan nan nan nan nan nan nan nan nan nan nan nan nan nan nan nan 0 2 2 2 2 1 1 1 0 nan 3 3 9 4 1 1 2 3 3 2 3 3 3 3 2 3 3 5 3 1 0 0 nan nan nan 0 1 2 2 2 0 1 1 2 3 4 5 5 5 8 13 13 20 31 50 50 91 107 107 115 127 135 135 100
nan 0 0 0 0 nan nan 0 0 0 0 nan nan nan nan nan nan nan nan nan nan nan 1 2 2 3 3 1 0 0 0 0 4 4 9 5 2 2 1 4 4 3 1 3 3 3 2 3 3 7 8 2 0 0 nan nan nan 0 0 1 1 2 2 3 3 4 6 7 7 7 6 9 12 12 17 38 55 55 77 98 98 92 92 94 94 104
0 0 0 0 0 0 0 0 0 0 0 nan nan nan nan nan nan nan nan nan nan nan nan 3 3 5 7 1 2 2 2 2 4 4 9 7 2 2 1 3 3 4 2 1 1 3 4 3 3 4 3 1 0 0 0 nan nan 0 0 1 1 1 2 3 3 6 8 11 8 8 8 9 12 12 19 38 47 47 62 70 70 64 70 70 70 90
0 0 0 1 1 1 0 0 nan nan nan nan nan nan nan nan nan nan nan nan nan 1 0 1 1 2 13 13 8 8 7 6 4 4 9 8 4 4 2 3 3 4 4 3 3 2 2 3 3 3 1 0 2 2 1 1 1 1 0 0 0 2 2 3 3 7 8 10 10 10 9 10 11 11 18 33 41 41 36 31 31 29 35 38 38 53
1 0 0 1 1 0 0 nan nan nan nan nan 0 0 1 2 2 2 0 2 2 2 3 2 2 0 nan nan 7 7 8 2 nan nan 1 1 2 2 3 2 2 4 4 3 3 1 0 0 0 1 1 0 1 1 1 1 1 1 0 1 1 1 2 3 3 6 8 7 10 10 10 11 14 14 23 36 45 45 32 22 22 23 18 13 13 22
1 1 1 1 1 0 0 0 0 0 0 1 2 2 2 1 0 0 0 2 2 2 3 1 1 nan nan 1 3 3 4 1 2 2 0 nan nan nan 1 2 2 3 4 4 4 1 1 0 0 4 3 0 2 2 2 2 2 1 4 1 1 1 1 2 2 4 6 5 7 7 9 12 18 18 25 37 38 38 30 19 19 17 15 12 12 8
2 3 2 1 1 1 1 1 nan nan nan nan 1 1 nan nan nan nan 2 2 2 3 1 1 1 0 2 0 0 0 1 0 1 1 0 nan nan nan nan 1 1 3 2 3 3 1 3 1 1 4 3 2 3 3 3 3 3 7 9 3 3 2 3 5 5 4 6 6 6 6 13 16 20 20 25 35 31 31 23 12 12 15 13 9 9 7
6 4 1 1 1 0 0 nan nan nan nan 0 1 1 nan 0 1 1 2 3 3 2 1 0 0 2 1 1 0 0 0 1 0 0 0 nan nan nan nan 0 0 1 2 2 2 5 5 4 4 4 4 3 2 2 3 4 4 7 8 4 4 6 8 9 9 4 6 6 8 8 16 14 19 19 30 37 31 31 24 13 13 17 15 12 12 11
4 3 2 1 1 1 0 0 0 0 nan nan nan nan 1 1 2 2 1 2 2 2 1 1 1 1 1 2 1 1 0 0 1 1 1 nan nan nan nan nan nan nan 0 1 1 4 7 8 8 3 4 4 3 3 5 7 7 6 5 8 8 8 4 4 4 3 3 6 8 8 9 15 26 26 35 33 23 23 20 20 20 22 17 8 8 13
3 2 0 nan nan nan nan nan nan nan 0 0 1 1 2 0 0 0 0 2 2 3 2 0 0 0 0 1 1 1 1 1 nan nan nan 0 nan nan nan 0 0 nan 1 0 0 1 3 5 5 4 5 5 7 7 5 4 4 5 4 8 8 8 4 3 3 3 3 7 9 9 11 18 35 35 36 26 17 17 15 14 14 11 13 12 12 12
0 0 1 0 0 nan 0 nan nan nan 0 nan 1 1 3 2 0 0 2 2 2 3 1 0 0 0 1 1 0 0 0 0 0 0 nan 0 4 4 3 3 3 5 7 4 4 2 3 2 2 3 5 9 8 8 4 2 2 3 6 9 9 9 7 7 7 4 5 7 10 10 13 25 32 32 29 20 12 12 10 10 10 13 12 12 12 17
3 1 1 0 0 0 3 2 nan nan nan 2 1 1 4 2 nan nan 1 1 1 1 1 0 0 1 1 1 nan nan nan 0 nan nan nan 0 1 1 3 6 6 6 5 3 3 3 3 2 2 3 8 11 6 6 3 1 1 1 4 8 8 6 7 7 7 6 6 7 13 13 25 39 32 32 23 14 8 8 11 10 10 12 14 15 15 19
1 0 0 0 0 1 1 1 nan nan 1 4 3 3 3 1 nan nan nan 1 1 0 nan 0 0 1 1 1 0 0 0 0 0 0 0 0 1 1 2 3 3 6 3 3 3 4 4 3 3 5 5 4 3 3 3 2 2 3 3 6 6 7 6 8 8 8 9 10 21 21 36 39 25 25 18 13 10 10 9 11 11 11 14 15 15 18
1 1 2 1 1 2 2 2 nan nan 1 3 2 2 3 nan nan nan nan 0 0 0 3 1 1 1 nan 0 0 0 0 0 1 1 0 0 1 1 0 0 0 2 3 6 6 8 8 8 8 7 3 1 1 1 2 2 2 3 4 8 8 8 6 8 8 9 15 28 36 36 35 28 22 22 13 10 8 8 8 8 8 8 11 13 13 14
3 2 3 3 3 1 1 1 nan nan 1 3 3 3 3 4 11 11 nan nan nan nan nan 0 0 1 0 0 1 1 0 1 1 1 0 0 0 0 0 1 1 1 1 4 4 7 7 10 10 9 4 3 3 3 3 3 3 6 9 12 12 15 13 11 11 15 22 25 26 26 31 24 16 16 8 9 12 12 9 8 8 6 7 6 6 6
3 3 3 3 3 1 nan 0 0 0 1 2 1 1 2 3 1 1 nan nan nan nan nan nan nan 0 0 0 1 1 0 1 1 1 0 0 0 0 0 2 2 2 2 3 3 3 6 7 7 11 14 9 7 7 7 6 6 8 9 11 11 15 15 15 15 15 16 18 22 22 33 19 12 12 9 8 12 12 10 8 8 6 3 3 3 3
3 3 2 0 0 1 2 2 1 1 0 2 2 2 2 4 3 3 1 nan nan nan 0 nan nan 0 nan 1 1 1 1 1 0 0 0 0 0 0 2 2 2 1 2 1 1 1 1 1 1 2 7 15 12 12 3 9 9 11 11 12 12 11 11 11 11 15 20 15 20 20 16 10 10 10 9 7 8 8 9 6 6 2 2 1 1 2
CIN
nan nan nan nan nan nan nan nan nan nan nan nan nan nan nan nan nan nan nan nan nan nan nan nan nan nan nan nan nan nan nan nan nan nan nan -0 -0 -0 -0 -0 -0 -0 -0 -0 -0 -0 -0 -0 -0 -0 -0 -0 -0 -0 -0 -0 -0 -0 -0 -0 -0 -0 -0 -0 -0 -0 -0 -0 -0 -0 -0 -0 -0 -0 -0 -0 -0 -0 -0 -0 -0 -0 -0 -0 -0 -0
nan nan nan nan nan nan nan nan nan nan nan nan nan nan nan nan nan nan nan nan nan nan nan nan nan nan nan nan nan nan nan nan nan nan nan -0 -0 -0 -0 -0 -0 -0 -0 -0 -0 -0 -0 -0 -0 -0 -0 -0 -0 -0 -0 -0 -0 -0 -0 -0 -0 -0 -0 -0 -0 -0 -0 -0 -0 -0 -0 -0 -0 -0 -0 -0 -0 -0 -0 -0 -0 -0 -0 -0 -0 -0
nan nan nan nan nan nan nan nan nan nan nan nan nan nan nan nan nan nan nan nan nan nan nan nan nan nan nan nan nan nan nan nan nan nan nan -0 -0 -0 -0 -0 -0 -0 -0 -0 -0 -0 -0 -0 -0 -0 -0 -0 -0 -0 -0 -0 -0 -0 -0 -0 -0 -0 -0 -0 -0 -0 -0 -0 -0 -0 -0 -0 -0 -0 -0 -0 -0 -0 -0 -0 -0 -0 -0 -0 -0 -0
nan nan nan nan nan nan nan nan nan nan nan nan nan nan nan nan nan nan nan nan nan nan nan nan nan nan nan nan nan nan nan nan nan nan nan nan -0 -0 -0 -0 -0 -0 -0 -0 -0 -0 -0 -0 -0 -0 -0 -0 -0 -0 -0 -0 -0 -0 -0 -0 -0 -0 -0 -0 -0 -0 -0 -0 -0 -0 -0 -0 -0 -0 -0 -0 -0 -0 -0 -0 -0 -0 -0 -0 -0 -0
nan nan nan nan nan nan nan nan nan nan nan nan nan nan nan nan nan nan nan nan nan nan nan nan nan nan nan nan nan nan nan nan nan nan nan nan nan nan -0 -0 -0 -0 -0 -0 -0 -0 -0 -0 -0 -0 -0 -0 -0 -0 -0 -0 -0 -0 -0 -0 -0 -0 -0 -0 -0 -0 -0 -0 -0 -0 -0 -0 -0 -0 -0 -0 -0 -0 -0 -0 -0 -0 -0 -0 -0 -0
nan nan nan nan nan nan nan nan nan nan nan nan nan nan nan nan nan nan nan nan nan nan nan nan nan nan nan nan nan nan nan nan nan nan nan nan nan nan -0 -0 -0 -0 -0 -0 -0 -0 -0 -0 -0 -0 -0 -0 -0 -0 -0 -0 -0 -0 -0 -0 -0 -0 -0 -0 -0 -0 -0 -0 -0 -0 -0 -0 -0 -0 -0 -0 -0 -0 -0 -0 -0 -0 -0 -0 -0 -0
nan nan nan nan nan nan nan nan nan nan nan nan nan nan nan nan nan nan nan nan nan nan nan nan nan nan nan nan nan nan nan nan nan nan nan nan nan nan -0 -0 -0 -0 -0 -0 -0 -0 -0 -0 -0 -0 -0 -0 -0 -0 -0 -0 -0 -0 -0 -0 -0 -0 -0 -0 -0 -0 -0 -0 -0 -0 -0 -0 -0 -0 -0 -0 -0 -0 -0 -0 -0 -0 -0 -0 -0 -0
nan nan nan nan nan nan nan nan nan nan nan nan nan nan nan nan nan nan nan nan nan nan nan nan nan nan nan nan nan nan nan nan nan nan nan nan nan nan -0 -0 -0 -0 -0 -0 -0 -0 -0 -0 -0 -0 -0 -0 -0 -0 -0 -0 -0 -0 -0 -0 -0 -0 -0 -0 -0 -0 -0 -0 -0 -0 -0 -0 -0 -0 -0 -0 -0 -0 -0 -0 -0 -0 -0 -0 -0 -0
nan nan nan nan nan nan nan nan nan nan nan nan nan nan nan nan nan nan nan nan nan nan nan nan nan nan nan nan nan nan nan nan nan nan nan nan nan nan nan -0 -0 -0 -0 -0 -0 -0 -0 -0 -0 -0 -0 -0 -0 -0 -0 -0 -0 -0 -0 -0 -0 -0 -0 -0 -0 -0 -0 -0 -0 -0 -0 -0 -0 -0 -0 -0 -0 -0 -0 -0 -0 -0 -0 -0 -0 -0
nan nan nan nan nan nan nan nan nan nan nan nan nan nan nan nan nan nan nan nan nan nan nan nan nan nan nan nan nan nan nan nan -0 -0 -0 nan -0 -0 -0 -0 -0 -0 -0 -0 -0 -0 -0 -0 -0 -0 -0 -0 -0 -0 -0 -0 -0 -0 -0 -0 -0 -0 -0 -0 -0 -0 -0 -0 -0 -0 -0 -0 -0 -0 -0 -0 -0 -0 -0 -0 -0 -0 -0 -0 -0 -0
nan nan nan nan nan nan nan nan nan nan nan nan nan nan nan nan nan nan nan nan nan nan nan nan nan nan nan nan nan nan nan nan nan nan nan nan -0 -0 -0 -0 -0 -0 -0 -0 -0 -0 -0 -0 -0 -0 -0 -0 -0 -0 -0 -0 -0 -0 -0 -0 -0 -0 -0 -0 -0 -0 -0 -0 -0 -0 -0 -0 -0 -0 -0 -0 -0 -0 -0 -0 -0 -0 -0 -0 -0 -0
nan nan nan nan nan nan nan nan nan nan nan nan nan nan nan nan -0 -0 nan nan nan nan nan nan nan nan nan nan nan nan nan nan nan nan nan nan nan nan nan nan nan -0 -0 -0 -0 -0 -0 -0 -0 -0 -0 -0 -0 -0 -0 -0 -0 -0 -0 -0 -0 -0 -0 -0 -0 -0 -0 -0 -0 -0 -0 -0 -0 -0 -0 -0 -0 -0 -0 -0 -0 -0 -0 -0 -0 -0
-0 -0 -0 -0 -0 nan nan nan nan nan nan nan nan nan nan nan -0 -0 -0 -0 -0 -0 -0 -0 -0 nan nan nan nan nan nan nan nan nan nan nan nan nan nan nan nan nan nan nan nan nan -0 -0 -0 -0 -0 -0 -0 -0 -0 -0 -0 -0 -0 -0 -0 -0 -0 -0 -0 -0 -0 -0 -0 -0 -0 -0 -0 -0 -0 -0 -0 -0 -0 -0 -0 -0 -0 -0 -0 -0
-0 -0 -0 -0 -0 nan nan nan nan nan nan nan nan nan -0 -0 -0 -0 -0 -0 -0 -0 -0 -0 -0 nan nan nan nan nan nan nan nan nan nan nan nan nan nan nan nan nan nan nan nan nan -0 -0 -0 -0 -0 -0 -0 -0 -0 -0 -0 -0 -0 -0 -0 -0 -0 -0 -0 -0 -0 -0 -0 -0 -0 -0 -0 -0 -0 -0 -0 -0 -0 -0 -0 -0 -0 -0 -0 -0
-0 -0 -0 -0 -0 -0 nan nan nan nan nan nan -0 -0 -0 -0 -0 -0 -0 -0 -0 -0 -0 -0 -0 nan nan nan nan nan nan nan nan nan nan nan nan nan -0 nan nan -0 nan nan nan nan -0 -0 -0 -0 -0 -0 -0 -0 -0 -0 -0 -0 -0 -0 -0 -0 -0 -0 -0 -0 -0 -0 -0 -0 -0 -0 -0 -0 -0 -0 -0 -0 -0 -0 -0 -0 -0 -0 -0 -0
-0 -0 -0 -0 -0 -0 nan nan nan nan nan -0 -0 -0 -0 -0 -0 -0 -0 -0 -0 -0 -0 -0 -0 nan nan nan nan nan nan nan nan nan nan nan nan nan -0 -0 -0 -0 nan nan nan nan -0 -0 -0 -0 -0 -0 -0 -0 -0 -0 -0 -0 -0 -0 -0 -0 -0 -0 -0 -0 -0 -0 -0 -0 -0 -0 -0 -0 -0 -0 -0 -0 -0 -0 -0 -0 -0 -0 -0 -0
-0 -0 -0 -0 -0 -0 -0 -0 -0 -0 -0 -0 -0 -0 -0 -0 -0 -0 -0 -0 -0 -0 -0 -0 -0 nan nan nan nan nan nan nan nan nan nan nan nan nan -0 -0 -0 -0 nan -0 -0 -0 -0 -0 -0 -0 -0 -0 -0 -0 -0 -0 -0 -0 -0 -0 -0 -0 -0 -0 -0 -0 -0 -0 -0 -0 -0 -0 -0 -0 -0 -0 -0 -0 -0 -0 -0 -0 -0 -0 -0 -0
-0 -0 -0 -0 -0 -0 -0 -0 -0 -0 -0 -0 -0 -0 -0 -0 -0 -0 -0 -0 -0 -0 -0 -0 -0 nan nan nan nan nan nan -0 -0 -0 -0 -0 -0 -0 -0 -0 -0 -0 -0 -0 -0 -0 -0 -0 -0 -0 -0 -0 -0 -0 -0 -0 -0 -0 -0 -0 -0 -0 -0 -0 -0 -0 -0 -0 -0 -0 -0 -0 -0 -0 -0 -0 -0 -0 -0 -0 -0 -0 -0 -0 -0 -0
-0 -0 -0 -0 -0 -0 -0 -0 -0 -0 -0 -0 -0 -0 -0 -0 -0 -0 -0 -0 -0 -0 -0 -0 -0 -0 nan nan nan nan nan -0 -0 -0 -0 -0 nan nan -0 -0 -0 -0 -0 -0 -0 -0 -0 -0 -0 -0 -0 -0 -0 -0 -0 -0 -0 -0 -0 -0 -0 -0 -0 -0 -0 -0 -0 -0 -0 -0 -0 -0 -0 -0 -0 -0 -0 -0 -0 -0 -0 -0 -0 -0 -0 -0
-0 -0 -0 -0 -0 -0 -0 -0 -0 -0 -0 -0 -0 -0 -0 -0 -0 -0 -0 -0 -0 -0 -0 -0 -0 -0 nan nan nan nan -0 -0 -0 -0 -0 -0 nan nan nan -0 -0 -0 -0 -0 -0 -0 -0 -0 -0 -0 -0 -0 -0 -0 -0 -0 -0 -0 -0 -0 -0 -0 -0 -0 -0 -0 -0 -0 -0 -0 -0 -0 -0 -0 -0 -0 -0 -0 -0 -0 -0 -0 -0 -0 -0 -0
-0 -0 -0 -0 -0 -0 -0 -0 -0 -0 -0 -0 -0 -0 -0 -0 -0 -0 -0 -0 -0 -0 -0 -0 -0 -0 -0 -0 nan nan -0 -0 -0 -0 -0 -0 nan nan nan -0 -0 -0 -0 -0 -0 -0 -0 -0 -0 -0 -0 -0 -0 -0 -0 -0 -0 -0 -0 -0 -0 -0 -0 -0 -0 -0 -0 -0 -0 -0 -0 -0 -0 -0 -0 -0 -0 -0 -0 -0 -0 -0 -0 -0 -0 -0
-0 -0 -0 -0 -0 -0 -0 -0 -0 -0 -0 -0 -0 -0 -0 -0 -0 -0 -0 -0 -0 -0 -0 -0 -0 -0 -0 -0 -0 -0 -0 -0 -0 -0 -0 -0 nan nan nan -0 -0 nan nan nan nan -0 -4 -0 -0 -0 -0 -0 -0 -0 -0 -0 -0 -0 -0 -0 -0 -0 -0 -0 -0 -0 -0 -0 -0 -0 -0 -0 -0 -0 -0 -0 -0 -0 -0 -0 -0 -0 -0 -0 -0 -0
-2 -0 -0 -0 -0 -0 -0 -0 -0 -0 -0 -0 -0 -0 -0 -0 -0 -0 -0 -0 -0 -0 -0 -0 -0 -0 -0 -0 -0 -0 -0 -0 -0 -0 -0 nan nan nan nan nan nan nan nan nan nan nan -0 -0 -0 -0 -0 -0 -0 -0 -0 -0 -0 -0 -0 -0 -0 -0 -0 -0 -0 -0 -0 -0 -0 -0 -0 -0 -0 -0 -0 -0 -0 -0 -0 -0 -0 -0 -0 -0 -0 -0
-4 -0 -0 -0 -0 -0 -0 -0 -1 -1 -0 -0 -0 -0 -3 -0 -0 -0 -0 -0 -0 -0 -0 -0 -0 -0 -0 -0 -0 -0 -0 -0 -0 -0 -0 nan nan nan nan nan nan nan nan nan nan nan -0 -0 -0 -0 -0 -0 -0 -0 -0 -0 -0 -0 -0 -0 -0 -0 -0 -0 -0 -0 -0 -0 -0 -0 -0 -0 -0 -0 -0 -0 -0 -0 -0 -0 -0 -0 -0 -0 -0 -0
-0 -0 -0 -0 -0 -0 -0 -0 -0 -0 -0 -0 -2 -2 -9 -0 -0 -0 -0 -0 -0 -0 -0 -0 -0 -0 -0 -0 -0 -0 -0 -0 -0 -0 -0 nan nan nan nan nan nan nan nan nan nan nan -0 -0 -0 -0 -0 -0 -0 -0 -0 -0 -0 -0 -0 -0 -0 -0 -0 -0 -0 -0 -0 -0 -0 -0 -0 -0 -0 -0 -0 -0 -0 -0 -0 -0 -0 -0 -0 -0 -0 -0
-0 -0 nan -0 -0 -0 -0 -0 -0 -0 -0 -0 -0 -0 -0 -0 -0 -0 -0 -0 -0 -0 -0 -0 -0 -0 -0 -0 nan nan nan -0 -0 -0 nan nan nan nan nan nan nan nan nan nan nan -0 -0 -0 -0 -0 -0 -0 -0 -0 -0 -0 -0 -0 -0 -0 -0 -0 -0 -0 -0 -0 -0 -0 -0 -0 -0 -0 -0 -0 -0 -0 -0 -0 -0 -0 -0 -0 -0 -0 -0 -0
-0 -0 -0 -0 -0 -0 -0 -0 -0 -0 -0 -0 -0 -0 -0 -0 -0 -0 -0 -0 -0 -0 -0 -0 -0 -0 -0 nan nan nan nan nan nan nan nan nan -0 -0 nan -0 -0 -0 -0 -0 -0 -0 -0 -0 -0 -0 nan nan nan nan -0 -0 -0 -0 -0 -0 -0 -0 -0 -0 -0 -0 -0 -0 -0 -0 -0 -0 -0 -0 -0 -0 -0 -0 -0 -0 -0 -0 -0 -0 -0 -0
nan nan nan nan nan -0 -0 -0 -0 -0 -0 -0 -0 -0 -0 -0 -0 -0 -0 -0 -0 -0 -0 -0 -0 -0 -0 nan nan nan nan nan nan nan nan -0 -0 -0 -0 -0 -0 -0 -0 -0 -0 -0 -0 -0 -0 nan nan nan nan nan -0 -0 -0 -0 -0 -0 -0 -0 -0 -0 -0 -0 -0 -0 -0 -0 -0 -0 -0 -0 -0 -0 -0 -0 -0 -0 -0 -0 -0 -0 -0 -0
nan nan nan nan nan -0 -0 -0 -0 -0 -0 -0 -0 -0 -0 -0 -0 -0 -0 -0 -0 -0 -0 -0 -0 -0 -0 nan nan nan nan nan nan nan -0 -0 -0 -0 -0 -0 -0 -0 -0 -0 -0 -0 nan nan nan nan nan nan nan nan nan -0 -0 -0 -0 -0 -0 -0 -0 -0 -0 -0 -0 -0 -0 -0 -0 -0 -0 -0 -0 -0 -0 -0 -0 -0 -0 -0 -0 -0 -0 -0
nan nan nan nan nan nan -0 nan -0 -0 -0 -0 -0 -0 -0 -0 -0 -0 -0 -0 -0 -0 -0 -0 -0 -0 -0 -0 nan nan nan nan nan nan -0 -0 -0 -0 -0 -0 -0 -0 -0 -0 -0 nan nan nan nan nan nan nan nan nan nan nan nan nan nan nan nan nan -0 -0 -0 -0 -0 -0 -0 -0 -0 -0 -0 -0 -0 -0 -0 -0 -0 -0 -0 -0 -0 -0 -0 -0
nan nan nan nan nan nan nan nan nan nan -0 -0 -0 -0 -0 -0 -0 -0 -0 -0 -0 -0 -0 -0 -0 -0 -0 -0 nan nan nan nan nan nan -0 -0 -0 -0 -0 -0 -0 -0 -0 -0 -0 -0 nan nan nan nan nan nan nan nan nan nan nan nan nan nan nan nan nan -0 -0 -0 -0 -0 -0 -0 -0 -0 -0 -0 -0 -0 -0 -0 -0 -0 -0 -0 -0 -0 -0 -0
nan nan nan nan nan nan nan nan nan nan nan nan nan nan nan -0 -0 -0 -0 nan nan -0 -0 -0 -0 -0 -0 -0 -0 -0 nan nan -0 -0 -0 -0 -0 -0 -0 -0 -0 -0 -0 -0 -0 -0 nan -0 -0 nan nan nan nan nan nan nan nan nan nan nan nan nan nan nan nan -0 -0 -0 -0 -0 -0 -0 -0 -0 -0 -0 -0 -0 -0 -0 -0 -0 -0 -1 -1 -0
nan nan nan nan nan nan nan nan nan nan nan nan nan nan nan nan nan nan -0 -0 -0 -0 -0 -0 -0 -0 -0 -0 -0 -0 -0 nan -0 -0 -0 -0 -0 -0 -0 -0 -0 -0 -0 -0 -0 -0 -0 -0 -0 -0 -0 nan nan nan nan nan nan nan nan nan nan nan nan nan nan nan -0 -0 -0 -0 -0 -0 -0 -0 -0 -0 -0 -0 -0 -0 -0 -0 -0 -2 -2 -0
nan nan nan nan nan nan nan nan nan nan nan nan nan nan nan nan nan nan nan nan nan -0 -0 -0 -0 -0 -0 -0 -0 -0 -0 nan -0 -0 -0 -0 -0 -0 -0 -0 -0 -0 -0 -0 -0 -0 -0 -0 -0 -0 -0 -0 nan nan nan nan nan -0 -0 -0 -0 nan nan nan nan -0 -0 -0 -0 -0 -0 -0 -0 -0 -0 -0 -0 -0 -0 -0 -0 -0 -0 -0 -0 -0
nan nan nan nan nan nan nan nan nan nan nan nan nan nan nan nan nan nan nan nan nan nan -0 -0 -0 -0 -0 -0 -0 -0 -0 nan -0 -0 -0 -0 -0 -0 -0 -0 -0 -0 -0 -0 -0 -0 -0 -0 -0 -0 -0 -0 -0 -0 nan nan nan -0 -0 -0 -0 -0 -0 -0 -0 -0 -0 -0 -0 -0 -0 -0 -0 -0 -0 -0 -0 -0 -0 -0 -0 -0 -0 -0 -0 -0
nan -0 -0 -0 -0 nan nan -0 -0 -0 -0 nan nan nan nan nan nan nan nan nan nan nan -0 -0 -0 -0 -0 -0 -0 -0 -0 -0 -0 -0 -0 -0 -0 -0 -0 -0 -0 -0 -0 -0 -0 -0 -0 -0 -0 -0 -0 -0 -0 -0 nan nan nan -0 -0 -0 -0 -0 -0 -0 -0 -0 -0 -0 -0 -0 -0 -0 -0 -0 -0 -0 -0 -0 -0 -0 -0 -0 -0 -0 -0 -0
-0 -0 -0 -0 -0 -0 -0 -0 -0 -0 -0 nan nan nan nan nan nan nan nan nan nan nan nan -0 -0 -0 -0 -0 -0 -0 -0 -0 -0 -0 -0 -0 -0 -0 -0 -0 -0 -0 -0 -0 -0 -0 -0 -0 -0 -0 -0 -0 -0 -0 -0 nan nan -0 -0 -0 -0 -0 -0 -0 -0 -0 -0 -0 -0 -0 -0 -0 -0 -0 -0 -0 -0 -0 -0 -0 -0 -0 -0 -0 -0 -0
-0 -0 -0 -0 -0 -0 -0 -0 nan nan nan nan nan nan nan nan nan nan nan nan nan -2 -1 -0 -0 -0 -0 -0 -1 -1 -0 -0 -0 -0 -0 -0 -0 -0 -0 -0 -0 -0 -0 -0 -0 -0 -0 -0 -0 -0 -0 -0 -0 -0 -0 -0 -0 -0 -0 -0 -0 -0 -0 -0 -0 -0 -0 -0 -0 -0 -0 -0 -0 -0 -0 -0 -0 -0 -0 -0 -0 -0 -0 -0 -0 -0
-0 -0 -0 -0 -0 -0 -0 nan nan nan nan nan -0 -0 -0 -0 -0 -0 -0 -0 -0 -0 -0 -0 -0 -1 nan nan -0 -0 -0 -2 nan nan -3 -3 -0 -0 -0 -0 -0 -0 -0 -0 -0 -0 -0 -0 -0 -0 -0 -0 -0 -0 -0 -0 -0 -0 -0 -0 -0 -0 -0 -0 -0 -0 -0 -0 -0 -0 -0 -0 -1 -1 -1 -1 -0 -0 -2 -1 -1 -0 -0 -1 -1 -0
-0 -0 -0 -0 -0 -0 -0 -0 -0 -0 -0 -0 -0 -0 -0 -0 -1 -1 -3 -0 -0 -0 -0 -1 -1 nan nan -0 -0 -0 -0 -4 -1 -1 -5 nan nan nan -0 -0 -0 -0 -0 -0 -0 -0 -0 -0 -0 -0 -0 -0 -0 -0 -0 -0 -0 -0 -0 -0 -0 -0 -0 -0 -0 -0 -0 -2 -1 -1 -0 -0 -0 -0 -2 -2 -2 -2 -2 -2 -2 -0 -0 -1 -1 -1
-0 -0 -0 -0 -0 -0 -0 -0 nan nan nan nan -0 -0 nan nan nan nan -0 -0 -0 -0 -0 -0 -0 -0 -0 -1 -1 -1 -1 -7 -1 -1 -8 nan nan nan nan -0 -0 -0 -0 -0 -0 -0 -0 -0 -0 -0 -0 -0 -0 -0 -0 -0 -0 -0 -0 -0 -0 -0 -0 -0 -0 -0 -0 -1 -2 -2 -0 -0 -0 -0 -1 -1 -3 -3 -3 -4 -4 -1 -0 -3 -3 -2
-0 -0 -0 -0 -0 -0 -0 nan nan nan nan -2 -0 -0 nan -0 -0 -0 -0 -0 -0 -0 -0 -0 -0 -0 -0 -0 -1 -1 -4 -3 -8 -8 -13 nan nan nan nan -1 -1 -0 -0 -0 -0 -0 -0 -0 -0 -0 -0 -0 -0 -0 -0 -0 -0 -0 -0 -0 -0 -0 -0 -0 -0 -0 -0 -0 -1 -1 -0 -0 -1 -1 -1 -1 -1 -1 -0 -3 -3 -0 -0 -2 -2 -2
-0 -0 -0 -0 -0 -0 -0 -0 -0 -0 nan nan nan nan -0 -0 -0 -0 -0 -0 -0 -0 -0 -0 -0 -0 -0 -0 -0 -0 -3 -13 -7 -7 -5 nan nan nan nan nan nan nan -2 -0 -0 -0 -0 -0 -0 -0 -0 -0 -0 -0 -0 -0 -0 -0 -0 -0 -0 -0 -1 -0 -0 -0 -0 -0 -0 -0 -2 -1 -2 -2 -2 -1 -2 -2 -0 -0 -0 -0 -0 -2 -2 -1
-0 -0 -0 nan nan nan nan nan nan nan -4 -0 -0 -0 -0 -1 -3 -3 -0 -0 -0 -0 -0 -0 -0 -0 -0 -0 -0 -0 -0 -6 nan nan nan -8 nan nan nan -7 -7 nan -1 -0 -0 -0 -0 -0 -0 -0 -0 -0 -0 -0 -0 -0 -0 -0 -0 -0 -0 -0 -1 -0 -0 -0 -1 -0 -0 -0 -3 -3 -1 -1 -1 -1 -1 -1 -0 -0 -0 -0 -0 -1 -1 -1
-0 -0 -0 -0 -0 nan -1 nan nan nan -5 nan -0 -0 -0 -0 -0 -0 -0 -0 -0 -0 -0 -0 -0 -0 -0 -0 -0 -0 -0 -0 -3 -3 nan -9 -3 -3 -4 -2 -2 -0 -0 -0 -0 -0 -0 -0 -0 -0 -0 -0 -0 -0 -0 -0 -0 -0 -0 -0 -0 -0 -0 -0 -0 -1 -0 -0 -0 -0 -4 -3 -2 -2 -1 -1 -0 -0 -0 -0 -0 -0 -0 -2 -2 -1
-0 -0 -0 -0 -0 -1 -0 -0 nan nan nan -0 -0 -0 -0 -0 nan nan -0 -0 -0 -0 -0 -0 -0 -0 -0 -0 nan nan nan -0 nan nan nan -8 -10 -10 -3 -0 -0 -0 -0 -0 -0 -0 -0 -0 -0 -0 -0 -0 -0 -0 -0 -1 -1 -0 -0 -0 -0 -0 -0 -0 -0 -1 -2 -2 -1 -1 -1 -2 -1 -1 -1 -1 -2 -2 -0 -0 -0 -0 -0 -1 -1 -0
-0 -0 -1 -1 -1 -0 -1 -2 nan nan -0 -0 -0 -0 -0 -0 nan nan nan -0 -0 -0 nan -0 -0 -0 -0 -0 -0 -0 -0 -0 -0 -0 -0 -0 -0 -0 -0 -0 -0 -0 -0 -0 -0 -0 -0 -2 -2 -0 -0 -0 -0 -0 -0 -0 -0 -0 -0 -0 -0 -0 -0 -0 -0 -0 -2 -3 -1 -1 -1 -1 -1 -1 -1 -0 -0 -0 -0 -0 -0 -0 -0 -1 -1 -1
-0 -0 -0 -0 -0 -0 -0 -0 nan nan -0 -0 -0 -0 -0 nan nan nan nan -0 -0 -0 -0 -0 -0 -0 nan -0 -0 -0 -0 -0 -0 -0 -0 -0 -0 -0 -0 -0 -0 -0 -0 -0 -0 -0 -0 -2 -2 -2 -0 -0 -0 -0 -0 -0 -0 -0 -0 -0 -0 -0 -0 -0 -0 -1 -3 -1 -2 -2 -2 -1 -1 -1 -2 -1 -0 -0 -0 -0 -0 -1 -1 -2 -2 -1
-0 -0 -0 -0 -0 -0 -0 -0 nan nan -0 -0 -0 -0 -0 -0 -0 -0 nan nan nan nan nan -0 -0 -0 -0 -0 -0 -0 -0 -0 -0 -0 -0 -0 -0 -0 -0 -0 -0 -0 -0 -0 -0 -0 -0 -1 -1 -0 -0 -0 -0 -0 -0 -0 -0 -0 -0 -0 -0 -0 -0 -0 -0 -1 -1 -2 -4 -4 -2 -1 -1 -1 -2 -1 -0 -0 -0 -0 -0 -0 -0 -4 -4 -5
-0 -0 -0 -0 -0 -0 nan -0 -0 -0 -0 -0 -0 -0 -1 -0 -2 -2 nan nan nan nan nan nan nan -0 -0 -0 -0 -0 -0 -0 -0 -0 -0 -0 -0 -0 -0 -0 -0 -0 -0 -0 -0 -0 -0 -1 -1 -1 -0 -0 -0 -0 -0 -0 -0 -0 -0 -0 -0 -0 -0 -0 -0 -0 -0 -2 -5 -5 -2 -2 -3 -3 -2 -1 -0 -0 -0 -0 -0 -0 -3 -5 -5 -5
-0 -0 -0 -1 -1 -0 -0 -0 -0 -0 -0 -0 -0 -0 -0 -0 -0 -0 -0 nan nan nan -0 nan nan -0 nan -0 -0 -0 -0 -0 -0 -0 -0 -0 -0 -0 -0 -0 -0 -0 -0 -0 -0 -0 -0 -0 -0 -0 -0 -0 -0 -0 -0 -0 -0 -0 -0 -0 -0 -0 -0 -0 -0 -0 -0 -1 -2 -2 -4 -3 -2 -2 -2 -2 -0 -0 -0 -1 -1 -3 -4 -4 -4 -3
Wind_Speed
3 3 4 4 4 5 5 5 6 6 6 6 6 6 6 6 7 7 8 8 8 8 8 8 9 10 11 13 15 17 18 19 19 19 20 20 20 21 21 21 21 21 21 21 21 21 22 22 22 23 23 23 24 24 24 24 25 25 25 25 25 25 25 25 25 25 25 25 24 24 24 24 24 24 24 24 24 25 25 25 26 26 27 27 27 28
3 3 3 4 4 5 5 5 6 6 7 7 7 7 7 8 7 7 7 7 8 8 7 8 9 10 11 12 14 16 17 18 19 19 19 20 20 20 20 20 20 20 20 21 21 21 21 22 22 23 23 23 24 24 24 24 24 25 25 25 25 25 25 25 25 25 25 25 25 24 24 24 24 24 24 24 25 25 25 26 26 26 27 27 28 28
3 3 3 3 4 4 4 5 6 6 7 7 7 8 9 9 8 7 6 7 7 7 7 8 8 9 10 10 12 15 16 18 18 19 19 20 20 20 20 20 20 20 20 20 20 21 21 22 22 23 23 23 24 24 24 24 24 25 25 25 25 25 25 25 25 25 24 24 24 24 24 24 24 25 25 25 25 26 26 26 26 27 27 27 28 29
3 3 4 3 3 4 4 5 6 6 6 7 7 8 9 8 7 6 6 7 7 7 7 8 8 8 8 9 11 13 16 17 18 19 19 19 20 20 19 19 19 19 20 20 20 21 21 22 22 23 23 24 24 24 24 24 25 24 24 24 24 24 24 24 24 24 24 24 24 24 25 25 25 25 25 26 26 26 26 27 27 27 27 27 28 29
3 3 4 3 3 4 4 5 5 6 6 6 7 7 7 6 6 6 6 7 7 7 7 7 8 8 8 8 10 12 15 17 18 19 19 19 19 19 19 19 19 19 19 20 20 21 21 22 22 23 23 24 24 25 25 25 25 24 24 24 24 24 24 24 24 24 24 25 25 25 25 25 25 25 26 26 26 26 27 27 27 27 28 28 28 29
3 3 3 3 3 3 4 4 5 5 5 5 5 6 5 5 5 6 6 6 6 6 6 6 7 7 8 8 10 12 15 17 18 18 18 18 18 18 18 18 19 19 19 20 20 21 21 22 22 23 23 24 24 25 25 25 25 24 24 24 24 24 24 24 24 25 25 25 25 25 25 25 26 26 26 26 26 27 27 27 28 28 28 28 29 29
3 3 3 3 3 3 3 4 4 4 4 5 5 5 5 5 5 5 6 6 6 6 6 6 7 7 8 8 10 12 13 15 16 16 17 17 17 17 17 18 18 19 20 20 20 21 21 21 22 23 23 24 24 25 25 25 25 24 24 24 24 24 24 25 25 25 25 25 26 26 26 26 26 26 26 26 26 26 27 27 27 28 28 29 29 29
4 4 4 3 3 3 3 3 3 4 4 5 6 6 6 6 5 5 6 5 5 5 6 6 6 7 7 8 9 10 10 11 12 12 13 14 14 15 16 17 18 19 20 20 20 21 21 21 22 23 23 24 24 25 25 24 24 24 24 24 24 24 25 25 25 25 26 26 26 26 27 27 27 27 26 26 26 26 27 27 27 28 28 28 29 29
5 5 4 4 4 4 4 3 3 3 4 5 6 6 7 7 6 6 6 5 5 5 5 6 6 7 7 7 8 8 9 9 9 9 10 10 11 12 14 16 17 18 19 20 20 21 21 21 22 23 23 24 24 24 24 24 24 24 24 24 25 25 25 25 25 26 26 26 27 27 27 27 27 27 27 27 26 26 26 27 27 27 28 28 29 29
6 6 5 4 4 4 4 4 4 4 4 4 5 5 6 7 7 7 6 6 5 4 4 6 7 7 7 7 7 8 9 9 10 11 11 11 12 14 15 15 15 16 19 19 20 20 21 21 22 22 23 23 23 23 23 23 23 23 24 24 25 25 25 26 26 26 26 27 27 27 28 28 28 27 27 27 27 26 26 26 26 27 27 28 28 29
5 5 5 5 4 4 4 4 5 5 5 5 5 4 4 5 6 7 8 7 6 5 5 5 6 7 7 7 7 7 8 8 8 9 10 12 13 15 15 15 15 16 18 18 19 19 20 21 21 22 22 22 22 22 22 22 23 23 24 24 25 25 26 26 26 27 27 27 27 28 28 28 28 28 27 27 27 26 26 26 26 26 27 28 28 29
5 5 4 4 4 4 4 4 4 4 4 5 5 4 4 4 4 5 7 8 8 7 7 6 6 6 7 7 7 7 7 7 7 7 7 9 10 11 11 12 12 14 15 15 16 17 18 19 20 20 20 20 20 21 21 21 22 23 24 24 25 25 26 26 27 27 28 28 28 28 28 28 28 28 28 27 27 26 26 26 26 26 27 27 28 29
4 4 4 4 4 4 4 4 4 4 4 4 5 5 5 5 5 5 6 7 7 7 7 7 7 7 7 6 6 6 6 6 6 6 6 7 8 8 8 8 9 9 10 10 11 12 14 16 17 18 18 18 19 20 20 21 22 23 24 25 25 26 26 27 27 28 28 28 28 28 28 28 28 28 28 27 27 26 26 26 26 26 27 27 28 29
4 4 4 4 4 4 4 5 5 5 5 4 5 5 5 5 5 6 6 6 7 7 7 8 8 7 6 6 5 4 4 5 6 7 7 7 8 8 8 8 8 8 8 9 9 10 12 13 13 13 15 16 17 18 19 20 22 23 24 25 26 27 27 28 28 28 29 29 29 29 29 29 28 28 28 28 27 27 27 27 27 27 27 28 29 29
5 5 5 5 5 5 4 5 5 5 5 5 5 5 6 6 6 6 6 7 7 7 7 8 8 7 5 4 4 3 3 4 6 7 9 8 8 8 8 9 9 8 8 9 9 9 11 10 10 10 12 14 16 17 19 20 22 24 25 26 27 27 28 28 28 29 29 29 29 29 29 29 29 29 28 28 28 27 27 27 28 28 28 29 29 30
4 5 5 5 5 5 5 5 5 5 6 6 6 6 6 6 6 6 6 7 7 7 7 8 8 7 5 4 3 3 4 5 7 8 10 9 8 8 8 9 9 9 8 8 9 9 9 9 9 10 11 14 17 19 21 22 24 25 26 27 27 28 28 29 29 29 30 30 30 30 29 29 29 29 29 29 28 28 28 28 28 29 29 30 30 30
4 4 5 5 5 5 5 5 5 5 6 6 6 5 6 6 6 6 6 6 6 6 6 7 8 7 5 4 3 4 5 6 7 9 10 10 9 8 8 8 9 9 9 8 8 8 9 9 9 9 10 14 18 21 23 24 25 26 27 27 28 28 29 29 29 30 30 30 30 30 30 30 30 30 29 29 29 29 29 29 30 30 30 31 31 31
4 4 4 5 5 5 5 5 5 5 6 6 6 6 5 5 6 6 6 6 6 6 6 6 6 6 6 6 5 5 7 8 9 9 10 10 9 8 7 8 8 9 9 9 8 8 8 9 9 10 11 17 20 22 24 25 26 27 27 28 28 29 29 29 30 30 30 30 30 30 30 30 30 30 30 30 30 30 30 30 31 31 31 31 31 31
4 4 4 5 5 5 5 5 5 5 6 6 6 6 6 6 6 6 6 5 6 7 7 7 7 7 7 7 7 7 7 8 9 10 10 11 10 8 7 7 8 9 9 9 9 9 9 9 10 12 15 19 21 23 24 25 26 27 28 28 29 29 29 29 30 30 30 30 30 30 30 30 30 30 30 30 30 30 31 31 31 31 31 31 31 31
5 4 4 5 5 5 5 5 5 5 6 6 6 6 6 6 6 6 6 6 6 6 7 7 8 8 7 8 8 8 8 8 8 9 10 10 10 9 8 8 9 9 9 9 9 9 9 8 9 11 15 17 20 23 25 26 27 28 28 28 29 29 29 29 30 30 30 31 31 31 31 31 31 31 30 30 31 31 31 31 32 32 31 31 31 31
6 6 5 5 5 5 5 5 5 6 7 7 7 6 6 6 6 6 6 6 7 7 7 7 7 7 7 8 9 9 8 8 8 8 8 9 8 8 7 7 8 10 10 9 9 8 9 8 8 9 11 17 20 23 25 27 27 28 28 28 28 29 29 29 30 30 31 31 31 31 31 31 31 31 31 31 31 31 31 31 31 31 31 31 31 31
6 6 6 6 6 5 5 6 7 7 8 7 7 6 5 6 7 7 7 7 7 8 8 8 8 8 8 9 9 9 8 8 8 8 7 8 9 8 7 7 8 10 11 10 9 8 8 9 8 9 13 18 22 24 26 27 27 28 28 28 28 29 29 30 30 30 31 31 31 31 31 31 31 31 31 31 31 31 31 31 31 31 31 31 31 31
6 6 6 6 5 5 5 6 6 6 6 6 6 6 5 6 7 7 8 7 8 8 8 8 8 8 8 8 8 8 7 7 6 6 6 8 9 9 7 7 8 10 10 10 9 9 10 9 10 11 14 19 23 24 26 27 27 27 28 28 28 29 29 29 30 30 31 31 31 31 31 31 31 31 31 31 31 31 31 31 31 31 31 31 31 31
5 5 4 4 4 5 5 6 6 6 6 7 7 6 5 5 6 7 7 7 7 7 7 8 8 8 8 8 8 7 6 6 5 5 5 7 8 9 8 8 9 10 10 10 10 10 10 10 10 10 12 17 21 24 25 26 27 27 27 28 28 28 29 29 30 31 31 31 31 31 31 30 30 30 30 30 30 31 31 31 30 30 30 30 31 31
4 4 5 6 7 9 9 9 10 10 9 8 7 6 6 7 7 8 7 7 7 7 7 8 8 8 7 7 6 6 5 4 5 5 5 6 8 9 8 8 9 10 11 10 10 10 10 11 11 10 11 14 18 22 24 25 26 27 27 28 28 28 29 30 30 31 31 31 30 30 30 30 30 30 30 30 30 30 31 30 30 30 30 30 30 30
8 9 10 12 14 16 17 16 15 14 13 11 9 7 7 7 7 7 6 6 6 6 7 7 8 8 7 6 5 5 4 4 5 5 5 5 7 8 7 7 8 9 11 10 10 10 10 11 11 11 11 12 15 19 22 24 25 26 27 27 28 28 29 30 30 31 30 30 30 29 29 29 29 30 30 30 30 30 30 30 30 30 30 30 29 29
12 13 15 16 17 17 17 16 16 15 15 13 11 9 8 6 6 6 6 5 5 6 6 7 8 8 7 6 6 5 5 5 5 5 5 6 7 7 7 7 7 9 11 11 10 10 11 11 11 11 11 11 12 15 20 22 24 25 26 27 28 28 29 30 30 30 29 29 29 29 29 29 29 29 30 30 30 30 30 30 30 30 30 28 25 23
11 12 13 14 14 14 14 14 13 13 13 13 13 12 9 6 5 6 6 5 5 5 6 7 7 8 7 7 7 6 6 5 5 5 5 5 6 6 7 7 8 9 10 10 10 11 12 11 11 10 10 10 11 12 16 19 22 23 24 26 27 28 29 29 29 29 28 28 28 28 28 29 29 29 29 30 30 30 30 30 30 29 27 22 17 14
9 11 12 12 12 13 13 12 12 12 13 13 13 11 8 6 5 5 5 5 5 5 6 7 7 7 7 8 8 7 7 5 5 4 5 5 6 6 7 7 7 8 8 9 10 10 10 9 8 8 9 10 10 11 12 15 17 19 21 24 25 26 27 27 27 27 27 28 28 28 28 28 28 29 29 29 29 29 29 30 29 26 20 16 13 12
7 8 9 9 10 10 10 10 10 10 11 12 12 11 8 6 5 5 5 4 5 5 6 7 7 7 7 8 8 7 5 4 4 4 5 5 6 6 7 7 7 7 7 7 8 8 9 8 7 7 8 10 10 10 11 12 13 14 15 18 20 22 24 25 26 26 27 27 27 27 27 28 28 28 28 28 29 29 29 29 27 22 15 12 12 12
7 7 7 7 7 7 7 7 7 8 9 9 9 8 7 5 5 5 5 4 4 5 6 7 7 7 7 6 6 6 4 4 4 5 6 5 5 6 7 7 7 7 6 6 6 7 9 8 7 7 8 10 10 10 11 11 11 11 11 13 14 16 20 23 24 24 25 25 26 26 26 27 27 27 27 27 28 28 28 28 25 20 13 11 11 12
6 6 6 6 6 6 6 6 5 6 6 6 6 6 5 5 5 5 4 4 5 5 6 7 7 7 7 6 6 6 5 5 6 7 7 5 5 5 6 7 7 7 6 5 6 7 7 8 8 8 9 10 10 10 11 11 11 11 11 11 12 14 18 20 21 21 20 22 23 24 24 25 25 26 26 26 27 27 27 28 25 20 14 12 11 12
6 6 6 6 6 5 5 5 5 5 5 5 5 5 5 5 5 5 5 5 5 5 6 7 7 7 7 7 7 7 7 6 7 8 8 6 5 5 6 7 8 8 7 7 7 7 7 8 9 9 9 10 10 10 10 11 11 11 11 11 11 12 15 16 16 16 16 17 18 19 21 22 23 23 24 25 25 25 26 27 26 23 18 13 12 12
6 6 6 6 6 6 5 5 5 5 5 5 5 5 5 4 5 5 5 5 5 5 6 6 7 7 7 7 8 8 8 7 8 9 8 7 6 5 6 7 8 8 8 7 7 7 7 9 9 9 9 9 9 9 10 10 11 11 10 10 11 11 12 13 13 13 14 14 14 14 15 16 18 19 20 21 22 23 24 25 26 26 24 18 14 13
6 6 6 6 6 6 5 5 5 5 5 5 5 5 5 5 5 5 5 5 5 5 6 6 7 7 7 8 8 8 8 8 8 9 9 7 6 6 7 7 7 8 8 8 7 7 7 9 10 10 10 10 10 9 9 10 10 10 10 10 10 11 11 11 12 12 13 12 12 12 12 12 13 14 15 18 20 22 24 25 26 27 26 23 20 16
6 6 6 6 6 5 6 6 5 5 5 4 4 4 4 5 5 5 5 6 6 6 7 7 7 7 7 8 9 9 10 9 9 10 10 8 7 7 6 7 7 8 8 8 8 8 8 9 11 11 11 11 11 10 9 9 10 10 10 10 11 11 11 11 11 11 12 12 11 11 11 11 11 12 13 17 20 22 24 25 26 26 26 25 24 21
6 6 6 5 5 5 6 6 5 5 5 4 4 4 5 5 5 5 6 6 6 7 7 8 8 9 9 9 9 10 10 10 10 11 11 10 9 8 7 7 8 8 8 9 9 9 9 10 11 11 11 11 10 9 9 10 10 10 11 11 11 11 11 11 11 11 11 11 12 12 12 12 12 12 13 17 19 20 21 22 23 24 25 25 24 24
6 6 6 5 5 5 5 6 6 6 5 5 5 6 6 5 6 6 6 6 7 8 8 8 8 10 13 13 13 13 13 13 14 14 14 12 10 9 9 9 9 9 9 9 9 9 9 10 11 11 10 10 10 11 11 11 11 11 12 11 11 11 11 11 11 11 11 11 12 13 13 12 12 12 12 13 13 13 14 15 17 19 21 21 22 23
5 6 6 6 6 5 6 6 6 6 6 6 6 6 6 7 7 7 7 7 7 8 8 8 8 9 11 13 14 15 15 15 15 14 13 12 10 9 9 9 10 9 9 9 9 9 9 10 10 10 10 10 11 11 11 11 11 12 12 12 12 12 11 11 11 11 11 11 12 13 12 12 11 11 11 10 10 10 11 12 13 15 16 15 16 18
6 6 6 6 6 6 6 7 7 7 7 7 7 7 7 7 7 7 7 7 7 8 9 9 9 9 10 11 12 13 14 13 13 12 12 11 10 9 9 9 10 10 9 9 9 9 9 10 11 11 11 11 11 11 11 11 12 12 13 12 11 11 11 11 11 11 11 11 11 11 11 11 11 11 11 10 10 10 10 10 11 13 13 12 11 12
6 6 6 6 6 6 7 7 7 7 7 7 7 7 6 6 6 6 6 7 7 7 7 8 8 8 9 9 10 11 12 12 12 12 11 11 11 10 9 9 9 9 9 9 9 9 10 10 11 12 12 12 12 13 13 13 14 15 15 13 12 12 13 13 12 11 11 10 10 10 11 11 12 12 11 11 10 10 10 10 12 12 12 10 10 10
6 6 6 6 6 6 7 7 7 7 7 7 7 6 6 6 6 6 7 7 7 6 6 6 7 8 9 9 9 9 9 10 10 10 10 11 11 11 10 9 9 9 9 10 10 11 11 11 12 12 12 12 12 12 12 13 14 14 14 13 13 14 14 13 12 10 10 10 10 11 12 12 11 11 11 11 10 11 11 12 13 14 13 11 10 9
6 6 6 7 7 7 7 8 7 7 6 6 6 6 6 6 6 7 7 7 7 7 7 7 7 8 8 8 8 8 8 8 9 10 10 10 10 10 10 10 10 9 9 9 10 11 11 12 12 12 12 12 12 12 13 14 14 14 13 14 13 12 9 9 10 10 10 11 11 11 11 11 10 10 10 10 11 11 11 13 14 15 14 11 10 10
6 6 6 6 6 6 6 6 6 6 6 6 6 7 6 6 6 7 7 7 7 8 7 7 7 7 8 9 9 8 8 8 8 8 9 9 10 10 10 11 10 10 10 9 10 10 11 11 12 12 12 11 12 12 13 13 13 13 13 14 13 12 10 10 11 11 12 12 11 11 11 11 10 10 11 11 11 11 11 11 11 12 12 11 11 10
6 6 6 6 6 6 6 6 6 6 6 6 7 7 7 6 6 7 7 7 7 7 7 7 6 6 7 8 8 8 8 8 7 6 6 8 9 10 10 9 9 10 10 10 10 10 10 11 11 11 11 11 11 12 13 13 13 14 14 14 13 13 12 12 12 12 12 12 12 12 12 11 11 10 11 11 11 11 11 11 12 12 12 11 10 10
6 6 6 6 6 6 7 7 7 6 7 7 7 7 7 6 6 6 7 7 7 7 7 6 6 6 8 8 8 8 8 8 8 7 6 6 6 6 7 7 8 8 9 9 10 10 10 11 11 12 11 11 12 13 13 13 13 13 13 13 13 12 12 12 12 12 12 12 12 12 13 12 11 10 10 11 11 11 11 11 12 12 12 11 10 10
6 6 6 6 6 6 7 7 7 7 7 7 7 7 7 6 6 6 6 7 7 7 7 7 7 7 8 9 9 8 9 9 9 8 8 7 7 6 6 7 8 9 9 9 10 11 11 11 12 12 11 12 12 13 13 12 12 12 13 12 12 12 12 12 12 11 11 11 11 12 12 11 11 11 11 11 11 11 12 11 11 11 11 11 10 10
6 6 7 7 7 7 7 7 7 7 7 8 8 7 7 7 7 7 7 7 7 7 7 7 7 8 8 9 9 9 9 10 10 9 8 8 8 7 7 7 8 8 9 10 11 12 12 12 13 12 12 12 12 12 13 12 12 12 12 12 12 12 12 12 11 11 11 11 11 12 12 10 10 11 12 12 11 11 12 11 11 10 10 10 10 10
6 7 7 7 7 7 7 7 7 7 8 8 8 8 7 8 8 8 7 7 6 6 7 7 8 8 8 9 9 9 10 10 9 9 8 8 8 7 8 8 8 8 8 9 10 10 11 11 12 12 12 12 12 13 13 13 12 12 11 11 11 11 11 11 11 11 11 11 12 12 11 10 10 10 10 11 12 12 13 12 12 11 10 10 9 9
7 7 7 7 7 7 7 7 8 8 8 8 8 8 8 7 7 7 6 6 6 6 7 7 8 8 9 9 9 9 10 9 9 9 8 8 7 8 8 8 9 9 9 8 8 8 8 8 9 10 12 13 13 12 12 12 12 12 11 10 10 10 11 11 11 11 11 12 12 12 12 11 10 9 9 10 11 12 13 12 12 11 10 10 9 9
7 7 7 7 7 7 8 8 8 8 8 9 9 8 8 8 7 7 6 6 6 7 7 7 8 8 9 9 9 10 10 9 9 9 9 8 8 8 8 9 9 9 9 9 8 8 7 6 6 7 8 10 12 12 10 10 11 11 11 10 10 9 10 10 11 11 12 12 12 12 12 11 10 9 9 9 10 11 12 12 12 12 11 10 10 10
Wind_Direction
302 308 310 310 309 309 310 314 316 317 319 321 323 324 325 325 323 320 320 320 321 321 321 320 319 318 317 316 316 317 317 318 319 319 319 320 320 321 321 321 321 321 321 321 321 321 321 322 322 322 323 323 323 322 322 322 322 322 322 322 322 322 322 321 321 320 319 319 318 318 317 316 316 314 313 312 311 311 310 310 309 309 308 307 306 304
303 303 305 303 303 305 307 313 314 315 317 318 320 321 323 323 322 320 320 320 320 319 318 317 316 315 314 312 312 313 314 315 316 316 317 317 318 318 319 318 318 318 318 318 318 318 319 319 320 320 320 321 321 321 320 320 321 321 321 321 321 321 321 320 320 319 319 318 317 316 316 315 314 312 312 311 310 310 310 310 309 309 308 307 306 304
310 307 308 305 303 303 306 313 314 313 313 313 315 317 319 319 319 319 320 320 319 317 315 313 312 311 310 307 308 309 310 311 312 313 314 315 315 315 315 315 315 314 314 315 315 315 316 316 317 318 318 319 319 319 319 319 319 319 320 320 320 320 320 319 319 318 317 317 316 315 314 313 312 311 311 310 310 310 309 309 308 308 307 306 305 304
310 310 313 311 306 303 304 311 312 311 309 309 310 312 313 313 314 315 316 316 315 313 311 310 309 307 306 304 304 305 306 308 309 310 311 312 312 312 311 311 311 311 311 311 312 312 313 314 314 315 316 317 317 317 317 318 318 318 319 319 319 319 319 318 317 316 316 315 313 312 311 311 310 310 310 309 309 309 308 308 307 306 306 305 304 304
310 310 312 313 309 306 306 308 308 308 307 308 308 309 310 308 308 309 311 310 310 309 309 308 306 304 300 300 300 301 303 304 306 307 308 308 307 307 307 307 307 308 308 309 309 310 310 311 312 313 314 315 315 316 316 316 317 317 318 318 318 318 317 316 316 315 314 313 312 311 310 310 309 309 308 308 308 307 307 307 306 306 305 304 304 303
313 310 309 309 308 309 311 310 309 309 310 310 310 308 307 305 304 305 308 308 308 307 306 305 302 299 295 293 294 296 299 301 302 303 303 303 303 303 303 304 304 305 306 306 306 307 307 308 309 310 312 313 314 314 315 315 316 317 317 317 317 317 316 315 314 313 312 311 310 310 309 309 308 308 307 307 306 306 306 305 305 305 304 304 303 302
312 308 306 304 303 304 305 306 309 312 316 317 316 314 312 308 305 304 303 303 303 303 301 300 298 295 292 290 291 293 296 298 298 298 299 298 298 299 300 301 302 303 304 304 304 305 305 306 307 308 310 311 312 313 313 314 315 315 316 316 316 315 314 313 312 311 310 310 309 309 309 308 307 307 306 306 305 305 305 304 304 304 304 303 303 302
311 310 309 307 306 304 303 305 311 318 322 323 321 319 318 315 311 307 303 297 296 296 298 299 299 298 296 294 294 294 295 296 296 296 296 296 297 298 300 301 302 302 303 303 303 303 303 304 305 306 308 309 310 311 311 312 313 314 314 314 314 313 312 312 311 310 309 309 309 309 308 308 307 306 306 305 305 304 304 303 303 303 303 302 302 301
312 314 315 313 313 313 312 313 322 331 333 325 321 318 317 316 314 311 308 302 299 299 301 303 303 302 302 301 299 297 295 295 295 296 296 297 298 300 301 302 302 302 301 301 301 301 301 302 303 305 306 307 308 309 310 310 311 312 312 312 312 311 311 310 309 309 309 309 309 308 308 307 307 306 305 305 304 304 303 303 303 303 302 302 302 301
314 316 315 314 315 317 317 317 323 330 331 319 311 307 307 310 312 313 313 311 309 306 304 303 303 305 306 305 302 299 296 294 293 293 295 297 299 300 301 301 300 300 299 299 299 299 300 301 302 303 304 305 306 307 308 309 309 310 310 310 309 309 309 308 308 308 308 308 308 308 307 307 306 306 305 305 304 303 303 302 302 302 302 302 302 301
317 316 313 313 315 316 315 314 317 320 319 309 299 292 287 299 307 312 313 313 313 312 309 305 305 306 306 306 304 301 299 297 295 295 295 297 298 299 299 298 297 297 297 298 298 298 299 299 300 301 302 303 304 305 306 307 307 307 307 307 307 307 307 307 307 307 307 307 307 307 307 306 306 305 305 304 303 303 302 302 302 302 302 301 301 301
315 313 311 311 311 312 311 309 310 310 310 307 304 303 301 304 307 308 308 309 312 314 313 310 307 304 302 302 302 302 302 301 301 302 302 300 299 299 298 298 297 297 297 298 298 298 298 298 298 299 300 300 301 303 304 304 305 305 305 305 305 305 305 305 306 306 306 306 306 306 306 305 305 304 304 303 303 302 302 301 301 301 300 300 300 299
310 308 306 306 308 309 310 311 311 311 311 312 313 314 315 315 310 304 299 302 307 311 313 311 308 304 300 297 297 299 303 303 304 305 304 303 302 302 302 301 300 300 300 299 299 298 297 297 297 297 298 298 299 300 301 302 302 303 303 303 304 304 304 304 304 304 304 304 305 305 305 305 304 304 303 303 302 302 301 301 300 300 300 299 299 299
308 307 306 306 306 307 309 311 311 311 312 312 311 308 306 305 301 298 295 299 304 309 312 309 307 306 304 299 295 295 302 306 307 305 303 302 304 305 305 303 301 301 302 300 298 297 297 297 297 297 297 297 298 299 300 300 301 301 302 302 303 303 303 303 303 303 303 303 303 304 304 303 303 303 302 301 301 300 300 300 300 300 299 299 298 298
308 308 306 305 305 307 309 309 308 308 307 306 304 300 297 296 296 298 301 306 310 313 312 308 306 306 305 304 304 305 309 312 311 308 305 304 305 307 307 304 302 300 299 297 296 295 296 296 296 296 297 297 297 298 299 299 300 301 301 302 302 302 302 302 302 302 302 302 303 303 303 303 302 302 301 300 300 300 300 299 299 299 299 298 298 297
305 304 302 301 302 305 306 307 305 304 303 301 299 297 297 300 304 307 310 311 313 315 315 314 312 310 305 306 315 325 328 320 314 310 308 306 308 310 309 305 302 299 296 295 295 295 296 295 295 295 296 296 297 298 298 299 300 301 301 301 301 301 301 301 302 302 302 302 302 302 302 302 301 301 301 300 300 300 300 300 300 300 299 298 297 296
298 298 298 299 301 302 303 302 299 297 298 298 297 298 300 305 308 310 309 311 313 316 316 318 316 314 311 313 322 334 336 325 317 310 307 306 307 310 311 304 300 297 296 294 294 294 296 295 295 296 296 296 297 298 298 299 299 300 300 301 301 301 301 302 302 303 303 303 302 302 302 301 301 301 300 300 301 301 301 301 301 300 299 298 297 295
295 296 297 297 298 299 301 300 297 296 297 299 301 302 302 303 304 305 306 311 313 315 315 314 311 309 310 312 320 331 337 325 316 310 306 303 304 307 310 301 296 293 294 293 294 294 295 295 295 296 295 296 296 297 298 298 299 299 300 300 301 302 302 303 303 303 303 303 303 302 302 301 301 300 300 300 300 301 301 301 300 299 298 297 296 295
299 299 299 297 297 297 298 297 298 299 301 304 306 306 303 302 302 305 307 310 311 311 311 307 304 301 303 304 311 320 328 320 313 308 304 303 304 307 309 300 294 292 292 294 297 298 298 294 292 292 292 294 295 296 296 297 298 299 300 300 301 302 303 303 303 303 303 303 303 302 302 301 300 300 300 300 300 300 300 300 299 299 298 296 295 294
301 299 297 295 294 293 291 290 294 298 303 305 304 302 299 302 304 307 308 309 307 305 304 301 300 300 301 301 306 312 320 316 310 303 300 300 302 304 305 299 296 295 296 297 300 301 300 295 291 290 291 293 294 295 296 297 298 299 299 300 301 302 302 303 303 303 303 303 302 302 302 301 301 301 300 300 300 300 300 299 298 298 297 296 295 293
297 293 291 289 288 288 288 291 296 299 302 302 300 298 298 304 307 308 308 306 304 302 300 297 297 298 300 300 302 308 314 311 306 301 298 297 297 298 302 302 300 300 299 300 301 301 300 297 294 291 292 294 295 296 297 297 297 298 299 300 300 301 302 303 303 303 303 303 303 302 302 302 302 302 301 301 301 300 299 298 298 297 296 295 294 293
286 285 285 284 283 284 288 293 297 299 299 298 299 301 307 310 310 308 307 306 304 301 299 296 296 296 297 296 297 299 303 299 297 296 297 295 295 297 305 307 306 303 301 301 303 303 303 300 297 296 297 297 297 296 296 296 297 297 298 299 300 301 302 302 302 303 303 303 303 303 303 303 302 302 302 301 300 299 299 298 297 297 296 296 295 293
273 278 286 288 288 287 289 293 296 297 296 297 299 302 305 307 305 304 304 303 301 299 297 295 293 291 288 288 289 291 291 288 289 291 294 294 297 302 313 312 307 302 299 302 305 307 305 302 300 299 298 297 296 295 295 295 296 297 298 299 300 300 301 301 302 303 303 303 303 303 303 303 302 302 301 300 300 299 298 298 297 297 296 296 295 294
274 284 297 302 304 302 300 302 302 302 301 300 299 298 297 294 293 293 295 296 296 295 294 292 289 287 283 283 285 288 289 293 297 299 295 294 298 303 312 311 306 301 299 303 307 308 306 302 300 298 297 295 294 294 295 295 296 297 298 298 299 299 300 301 302 302 303 303 303 303 302 302 301 301 301 300 299 299 298 298 298 297 297 296 296 295
320 323 324 320 317 313 310 307 305 304 304 303 301 299 296 294 293 293 294 293 293 291 291 291 290 290 290 291 291 291 295 309 315 312 301 295 295 299 305 307 305 302 301 305 307 307 304 301 299 297 294 294 294 294 295 296 296 297 297 298 298 298 299 300 301 302 302 302 302 302 301 301 301 300 300 300 299 299 299 299 298 298 298 297 296 295
336 330 324 318 314 311 309 307 307 307 308 307 306 305 304 302 300 298 294 293 292 293 295 294 293 293 295 296 296 298 307 318 316 308 297 294 294 296 301 305 305 303 303 305 306 306 303 300 299 298 297 295 295 295 295 295 296 296 296 297 297 298 298 299 300 300 301 301 301 301 301 300 300 300 300 300 300 300 300 300 299 299 299 298 297 295
328 323 318 315 312 311 310 310 311 311 312 312 311 311 310 309 305 299 294 297 299 300 298 296 296 297 299 299 300 304 312 312 305 297 292 291 292 295 301 306 308 306 305 305 305 305 303 300 299 299 298 297 296 296 295 295 296 297 297 297 297 297 297 298 298 299 299 300 300 300 301 301 301 301 300 300 301 301 301 301 301 300 300 299 297 295
322 319 316 314 312 312 313 314 315 316 316 315 314 315 316 313 306 300 298 303 305 302 297 298 300 302 304 304 303 304 306 301 296 293 295 293 292 294 303 309 311 309 308 306 305 303 300 297 296 296 296 296 296 296 295 297 298 298 298 297 297 296 296 296 297 297 299 299 300 300 301 301 301 301 301 301 301 301 302 302 301 301 300 299 296 291
317 315 313 312 311 312 313 314 314 313 314 315 316 318 320 315 306 300 300 306 308 306 301 301 302 303 303 302 301 300 297 292 293 301 310 300 294 294 304 309 311 312 313 310 306 302 297 294 294 295 295 297 298 299 299 300 300 299 297 296 295 295 295 295 296 297 299 299 300 301 301 301 301 301 301 301 302 302 302 302 302 301 300 297 293 290
316 314 312 310 309 309 309 307 305 305 308 311 314 316 317 311 303 299 300 311 314 312 305 302 301 300 301 302 301 297 290 291 307 322 323 306 298 297 305 308 311 315 318 314 309 303 298 296 296 298 300 302 302 301 300 300 298 297 295 295 295 295 295 296 297 298 299 300 300 300 301 301 301 301 301 301 302 302 302 302 302 301 298 294 291 289
318 315 311 309 306 303 299 296 295 296 301 304 307 308 308 304 299 298 302 312 313 309 303 300 299 298 299 300 299 296 293 302 320 327 322 306 297 299 307 308 309 311 314 311 307 304 303 302 303 304 306 304 302 299 297 295 294 293 293 294 294 294 295 296 298 299 299 300 300 300 300 300 300 300 300 301 301 302 303 303 303 302 296 293 290 288
316 313 309 305 301 296 291 289 290 292 294 295 295 295 293 293 293 295 299 301 301 299 297 295 293 292 291 287 285 285 289 299 310 316 313 301 295 296 304 304 304 304 304 296 292 293 298 301 305 307 308 303 298 295 292 291 290 290 290 291 291 292 295 297 299 299 299 299 300 299 299 299 299 299 299 300 301 302 303 304 304 303 299 294 290 288
311 307 302 298 295 291 289 288 288 288 288 287 285 283 282 283 283 284 286 286 287 287 287 288 287 287 284 280 278 278 281 289 298 304 305 300 296 296 300 300 299 299 298 290 283 280 281 289 297 302 302 298 295 292 291 289 287 287 287 288 289 291 295 297 298 298 298 299 299 299 299 298 298 298 298 299 300 302 303 304 304 304 302 297 292 290
304 299 296 295 294 293 291 288 284 282 281 280 280 280 279 277 277 277 279 278 278 277 277 279 281 282 283 282 279 278 279 284 292 298 303 299 295 294 297 296 296 296 297 292 287 282 278 283 289 294 297 295 293 291 290 289 287 286 285 286 287 289 293 295 296 296 297 297 297 297 298 298 297 297 297 298 300 301 303 304 305 304 303 300 296 292
299 297 296 296 295 294 292 288 284 280 278 277 277 277 277 276 274 274 274 274 272 269 266 267 269 272 276 279 281 281 282 285 291 296 298 294 292 291 293 291 292 293 294 291 291 289 286 286 288 290 294 295 294 292 289 289 289 288 287 286 287 288 290 292 293 294 295 295 294 295 296 297 297 297 297 298 299 301 302 304 304 304 303 301 298 294
297 297 297 295 293 293 294 294 293 290 286 281 276 272 271 271 271 270 269 268 267 267 265 263 262 262 265 269 274 278 282 286 289 291 291 288 288 287 287 286 287 288 288 288 288 288 288 289 290 291 292 292 293 293 292 294 294 293 291 290 289 288 289 290 290 291 291 292 293 294 295 297 297 297 296 298 299 300 302 303 304 304 303 301 298 295
296 296 297 294 292 293 297 300 301 300 296 293 286 279 275 271 269 267 264 262 262 263 265 264 262 260 259 261 264 269 276 281 284 284 284 283 283 282 281 281 282 281 280 282 284 286 288 289 290 290 289 288 289 293 298 301 300 298 294 293 292 291 289 289 289 288 288 289 291 293 296 297 296 296 295 297 298 299 301 302 303 304 303 301 299 297
297 298 299 299 298 298 301 304 305 305 304 303 299 293 286 277 270 266 263 261 260 259 261 261 261 260 259 260 262 264 269 273 276 277 277 277 276 275 275 276 276 274 272 275 279 283 285 287 289 289 288 286 287 289 295 299 299 298 296 295 293 291 289 289 289 289 289 291 292 293 294 295 294 294 294 295 296 297 300 303 305 305 304 303 300 297
295 296 300 302 303 304 306 305 306 306 304 301 298 295 292 285 278 273 268 266 262 259 256 257 258 260 259 259 260 263 266 268 269 269 269 266 265 265 268 271 272 272 271 271 272 275 277 279 281 284 286 288 289 290 291 293 294 295 297 297 294 291 288 290 291 292 292 293 293 293 293 293 294 293 293 293 295 298 302 304 305 305 305 303 300 298
295 296 299 301 303 304 303 302 302 303 302 300 297 295 293 289 284 279 273 270 268 265 262 259 260 262 263 262 262 262 263 263 263 262 260 257 255 256 260 265 269 272 274 272 271 270 271 273 275 277 279 282 286 289 291 291 291 293 297 297 296 295 295 296 296 295 293 291 290 290 292 294 295 295 293 294 296 299 302 303 303 302 302 300 298 297
297 298 299 302 302 302 299 298 298 298 297 295 293 291 287 285 283 283 281 280 278 276 274 270 269 269 269 266 265 264 262 260 258 257 255 252 250 250 254 260 266 271 275 274 272 271 269 271 273 274 275 277 280 283 285 286 289 291 294 293 293 293 296 296 294 293 292 291 290 291 293 294 295 295 294 295 296 298 299 298 298 297 297 294 292 292
298 299 301 302 301 300 297 296 294 292 289 288 285 283 281 281 283 286 288 288 286 284 281 280 279 279 279 276 273 270 266 263 260 256 254 251 249 248 251 256 262 267 272 274 273 272 269 270 271 273 274 277 280 282 284 286 288 290 290 289 291 292 293 292 292 293 294 295 295 295 295 295 294 295 295 296 297 298 299 297 295 295 294 292 289 287
299 299 298 297 296 295 295 294 292 288 284 281 280 280 280 280 282 284 286 286 287 286 285 283 282 283 285 286 285 282 275 268 263 260 258 254 251 249 251 255 258 262 266 270 272 273 272 270 270 271 273 276 277 279 283 286 289 289 288 288 291 293 294 295 298 299 299 297 295 295 294 293 293 293 295 297 298 299 299 297 295 294 292 291 289 286
295 293 291 289 289 288 287 287 286 285 283 283 283 283 283 279 277 277 279 281 283 284 284 283 284 284 286 287 289 290 289 283 271 261 256 254 252 250 251 254 255 257 259 263 268 273 275 273 272 272 274 275 276 278 281 285 288 289 289 289 289 289 288 294 299 301 298 296 294 293 293 293 293 293 295 297 299 300 300 299 296 294 292 290 288 285
287 287 287 287 289 289 288 289 289 290 289 288 287 286 285 280 276 275 275 278 280 282 283 285 287 288 288 290 293 295 296 296 290 279 265 257 254 254 255 257 259 260 260 260 263 267 273 275 277 278 278 278 277 279 281 284 286 287 288 289 289 288 286 289 292 293 293 294 294 295 295 296 295 295 297 300 301 302 301 298 296 294 292 290 288 286
283 286 289 291 293 294 295 295 294 292 290 288 288 287 286 282 278 275 273 276 279 281 282 284 286 289 291 295 297 299 299 299 299 297 294 282 270 262 262 264 267 268 268 265 263 263 264 269 275 280 283 282 280 278 278 281 284 286 287 289 290 290 288 289 289 290 291 292 293 294 296 298 298 297 299 302 304 303 300 296 294 292 292 292 291 290
290 292 294 295 295 295 295 295 294 293 292 292 291 290 288 285 281 278 276 276 277 280 283 285 286 287 289 293 296 298 299 300 301 302 303 301 298 293 287 283 280 277 274 271 268 265 263 265 270 274 279 281 282 281 280 280 281 283 285 288 289 290 289 289 290 291 291 290 291 295 299 301 301 301 303 305 304 301 298 295 292 291 291 292 293 293
296 296 296 297 297 297 297 296 296 295 294 293 293 293 292 288 286 284 282 281 282 285 287 289 288 287 288 290 292 294 296 298 300 302 304 304 304 303 300 297 291 286 280 275 272 269 267 265 264 266 268 272 276 279 281 281 280 281 283 286 288 288 288 289 291 292 292 291 293 296 299 300 302 304 307 306 303 299 297 295 294 293 292 292 293 294
298 297 296 297 296 296 296 297 296 295 294 294 295 295 295 291 289 287 286 286 287 287 287 287 287 288 289 291 292 293 295 296 297 299 302 304 305 306 304 301 298 293 287 281 276 272 269 265 260 257 255 258 263 270 276 278 280 281 283 285 286 288 289 291 294 297 298 297 296 296 296 296 299 301 304 302 299 297 297 296 295 294 294 294 293 293
298 297 296 296 296 296 295 296 296 295 294 294 294 295 295 294 292 289 285 284 283 282 281 283 284 286 288 291 293 295 296 297 298 299 301 304 306 307 305 304 303 301 297 293 289 285 281 274 265 256 248 248 253 260 270 276 281 284 287 288 290 292 294 297 298 300 300 299 298 297 297 297 297 297 296 294 294 295 296 296 296 296 297 296 295 294
299 298 298 297 296 296 295 295 295 295 294 294 294 294 295 296 294 292 288 285 284 282 282 283 284 284 286 289 292 294 295 296 297 299 301 303 305 306 304 304 305 305 305 304 304 303 300 297 290 277 260 254 254 258 268 277 285 291 293 294 295 297 297 298 299 300 300 300 300 299 299 297 296 295 292 292 293 294 296 297 298 298 299 299 299 298